#timestamp,LO_Frequency,Hit,StdDev 
1514523615.1,286046998.5,N
1514523616.0,286046998.5,N
1514523635.8,286047000.0,N
1514523655.7,286046996.7,N
1514523675.5,286046995.0,N
1514523695.4,286046997.9,N
1514523715.2,286046997.8,N
1514523735.0,286046998.1,N
1514523735.9,286046998.1,N
1514523755.8,286047002.8,N
1514523775.6,286047002.6,N
1514523795.4,286047004.4,N
1514523815.3,286047003.2,N
1514523835.1,286047004.6,N
1514523855.9,286047004.9,N
1514523875.7,286047005.3,N
1514523895.5,286047007.2,N
1514523915.4,286047009.2,N
1514523935.2,286047008.5,N
1514523955.0,286047009.4,N
1514523956.0,286047009.4,N
1514523975.8,286047012.3,Y
1514523995.6,286047006.3,P
1514524015.5,286047005.3,N
1514524035.3,286047004.2,N
1514524055.1,286047004.1,N
1514524075.9,286047003.2,N
1514524095.7,286047004.0,N
1514524115.6,286047003.5,N
1514524135.4,286047002.9,N
1514524155.2,286047003.4,N
1514524175.1,286047009.1,Y
1514524176.0,286047009.1,P
1514524195.8,286047003.3,N
1514524215.7,286047003.2,N
1514524235.5,286047003.3,N
1514524255.3,286047003.1,N
1514524275.2,286047003.9,N
1514524295.0,286047004.2,N
1514524295.9,286047004.2,N
1514524315.8,286047003.0,N
1514524335.6,286047006.0,Y
1514524355.4,286046999.4,P
1514524375.3,286046995.9,N
1514524395.1,286046996.3,N
1514524415.8,286046995.5,N
1514524435.7,286046995.7,N
1514524455.5,286046997.3,N
1514524475.4,286046999.5,N
1514524495.2,286046996.5,N
1514524515.0,286046997.7,N
1514524515.9,286046997.7,N
1514524535.8,286046999.2,N
1514524555.6,286046996.9,N
1514524575.5,286046996.5,N
1514524595.3,286046999.0,N
1514524615.1,286046998.2,N
1514524635.9,286046998.8,N
1514524655.7,286046998.2,N
1514524675.5,286046999.2,N
1514524695.4,286046998.9,N
1514524715.2,286047001.2,N
1514524735.1,286046999.0,N
1514524736.0,286046999.0,N
1514524755.8,286046998.4,N
1514524775.6,286047002.7,N
1514524795.5,286047003.9,N
1514524815.3,286047004.0,N
1514524835.2,286047003.6,N
1514524855.9,286047004.4,N
1514524875.7,286047003.8,N
1514524895.6,286047001.4,N
1514524915.4,286047002.0,N
1514524935.2,286047004.0,N
1514524955.1,286047003.7,N
1514524956.0,286047003.7,N
1514524975.8,286047002.5,N
1514524995.7,286047001.1,N
1514525015.5,286046998.2,N
1514525035.3,286046998.3,N
1514525055.2,286047000.8,N
1514525075.0,286047001.6,N
1514525075.9,286047001.6,N
1514525095.8,286047005.9,N
1514525115.6,286047005.9,N
1514525135.4,286047003.7,N
1514525155.3,286047003.4,N
1514525175.1,286047003.6,N
1514525195.9,286047003.8,N
1514525215.7,286047004.4,N
1514525235.5,286047002.1,N
1514525255.4,286047002.7,N
1514525275.2,286047002.8,N
1514525295.0,286046999.8,N
1514525295.9,286046999.8,N
1514525315.8,286046998.1,N
1514525335.6,286046999.2,N
1514525355.5,286046996.6,N
1514525375.3,286046998.1,N
1514525395.1,286046998.4,N
1514525415.9,286047002.7,N
1514525435.7,286047001.3,N
1514525455.5,286047001.9,N
1514525475.4,286047001.9,N
1514525495.2,286047002.4,N
1514525515.1,286047000.0,N
1514525516.0,286047000.0,N
1514525535.8,286047002.1,N
1514525555.6,286047002.1,N
1514525575.5,286047003.1,N
1514525595.3,286047004.1,N
1514525615.1,286047003.4,N
1514525635.9,286047005.6,N
1514525655.7,286047007.4,Y
1514525675.6,286047005.0,P
1514525695.4,286047001.8,N
1514525715.2,286047001.4,N
1514525735.1,286047004.4,Y
1514525736.0,286047004.4,P
1514525755.8,286046998.7,N
1514525775.7,286046998.6,N
1514525795.5,286046998.3,N
1514525815.3,286046995.0,N
1514525835.2,286046995.1,N
1514525855.0,286046996.0,N
1514525855.9,286046996.0,N
1514525875.8,286046994.1,N
1514525895.6,286046994.7,N
1514525915.4,286046993.9,N
1514525935.3,286046995.5,N
1514525955.1,286046995.2,N
1514525975.8,286046997.3,N
1514525995.7,286046996.6,N
1514526015.5,286046999.6,N
1514526035.4,286046998.9,N
1514526055.2,286047001.1,N
1514526075.0,286046998.7,N
1514526075.9,286046998.7,N
1514526095.8,286047000.6,N
1514526115.6,286047000.9,N
1514526135.5,286046998.1,N
1514526155.3,286047000.2,N
1514526175.1,286047000.4,N
1514526195.9,286046998.4,N
1514526215.7,286046999.0,N
1514526235.5,286046998.2,N
1514526255.4,286047002.4,N
1514526275.2,286047000.5,N
1514526295.1,286047000.4,N
1514526296.0,286047000.4,N
1514526315.8,286047001.8,N
1514526335.6,286047003.2,N
1514526355.5,286047001.4,N
1514526375.3,286047002.0,N
1514526395.1,286047002.7,N
1514526415.9,286047001.9,N
1514526435.7,286047003.9,N
1514526455.6,286047002.9,N
1514526475.4,286047003.2,N
1514526495.2,286047004.4,N
1514526515.1,286047002.1,N
1514526516.0,286047002.1,N
1514526535.8,286046999.7,N
1514526555.7,286047002.8,N
1514526575.5,286047004.4,N
1514526595.3,286047001.4,N
1514526615.2,286047001.9,N
1514526635.0,286047004.4,N
1514526635.9,286047004.4,N
1514526655.7,286047003.7,N
1514526675.6,286047006.0,Y
1514526695.4,286047005.4,P
1514526715.3,286047005.1,N
1514526735.1,286047005.4,P
1514526755.8,286047003.7,N
1514526775.7,286047004.1,N
1514526795.5,286047003.3,N
1514526815.4,286047003.7,N
1514526835.2,286047004.0,Y
1514526855.0,286047000.7,P
1514526855.9,286047000.7,N
1514526875.8,286046999.2,N
1514526895.6,286046996.9,N
1514526915.4,286046997.2,N
1514526935.3,286046997.5,N
1514526985.1,286046995.9,E
1514526995.1,286046996.9,N
1514526996.0,286046996.9,P
1514527015.8,286046999.8,P
1514527035.6,286047001.5,N
1514527085.5,286046998.5,E
1514527095.4,286047000.9,N
1514527115.3,286046999.7,P
1514527135.1,286046998.3,N
1514527136.0,286046998.3,N
1514527155.8,286046998.8,N
1514527175.7,286047001.2,N
1514527195.5,286046999.3,N
